sat.trackr.live / text

‹ back to catalog

STARLINK-33957

NORAD 63897 · 2025-095H

PAYLOAD ACTIVE UNKNOWN

§ Identity

Operator
Country
US
Launch date
2025-05-10
Launch site
AFETR
Launch vehicle
Mass (kg)
RCS (m²)

Purposes: comms

External: N2YO · Heavens-Above · Gunter

§ Orbital elements

Epoch: 2026-09-20T22:17:49.557984Z

Period
94.27 min
Inclination
43.0007°
Eccentricity
0.0002156
Mean motion
15.27590931 rev/d
Perigee alt
481.5 km
Apogee alt
484.5 km
Semi-major
6,861.2 km
B*
5.1029e-4
RAAN
153.9110°
Arg perigee
304.5376°
Mean anomaly
55.5272°
Rev number
7,763

§ Raw data

STARLINK-339571 63897U 25095H   26263.92904581  .00013811  00000+0  51029-3 0  99942 63897  43.0007 153.9110 0002156 304.5376  55.5272 15.27590931 77632

JSON: /api/v1/satellites/63897 · /tle

For live sub-satellite position, see the globe view (requires WebGL).

§ Visibility from observer

Set your observer location to see the next 7 days of passes ≥ 10°. The values pass through the URL so the page stays shareable.

No JS? Fill the form by hand. The geolocation button needs JavaScript.